Location: Shannon
(40.5500°S, 175.4167°E)
Time: 22:08:09
(UTC+00:00)

ATLAS 3B R/B - Pass Details

Date: 17 November 2025
Orbit: 935 x 1258 km, 63.8° (Epoch: 06 December)

Event Time Altitude Azimuth Distance (km) Brightness Sun altitude
Rises 12:14:10 0° 209° (SSW) 3,628 6.3 -30.3°
Reaches altitude 10° 12:17:00 10° 198° (SSW) 2,691 5.6 -30.3°
Maximum altitude 12:22:32 32° 136° (SE) 1,629 4.0 -30.2°
Enters shadow 12:27:38 12° 77° (ENE) 2,605 4.7 -30.1°
